History for DABS

Tebessa, Algeria

Daily Weekly Monthly
Daily Summary for Friday, December 2, 2016
  Actual: Average: Record:
Temperature
Mean Temperature: 47 °F / 8 °C - :  
Max Temperature: 61 °F / 16 °C - - ()
Min Temperature: 33 °F / 0 °C - - ()
Degree Days
Heating Degree Days: 18    
Moisture
Dew Point 37 °F / 3 °C    
Average Humidity 71    
Maximum Humidity 93    
Minimum Humidity 29    
Precipitation
Precipitation 0.00 in / 0.0 cm - - ()
Sea Level Pressure
Sea Level Pressure 30.19 in / 1022.38 hPa   
Wind
Wind Speed 1 mph / 1 km/h ()  
Max Wind Speed 9 mph / 15 km/h   
Max Gust Speed -   
Visibility 6.9 miles / 11.2 kilometers   
Events     

Key: T is trace of precipitation, MM is missing value
Source: Averaged Metar Reports

Graphs

Observations

History Graphs Observations

Obs Go Here...

Features

Weather Apps

WunderRadio

Weather Underground Apps
Check out our wide variety of mobile and setup applications.

Weather Underground Applications

Top of Page

© Copyright 2016
The Weather Company, LLC
Time(CET)TemperatureDew PointHumidity Sea Level Pressure Visibility Wind DirectionWind SpeedGust SpeedPrecipitationEvents Conditions
12:00 AM 39.2 °F / 4.0 °C 37.4 °F / 3.0 °C 93% 30.30 in / 1026 hPa - Calm Calm - N/A   Clear
12:30 AM 39.2 °F / 4.0 °C 37.4 °F / 3.0 °C 93% 30.30 in / 1026 hPa - Calm Calm - N/A   Clear
1:00 AM 39 °F / 4 °C 38 °F / 3 °C 92%  in /  hPa 6 miles / 10 kilometers Calm Calm - -   Clear
1:00 AM 39.2 °F / 4.0 °C 35.6 °F / 2.0 °C 87% 30.30 in / 1026 hPa - Calm Calm - N/A   Clear
1:30 AM 39.2 °F / 4.0 °C 37.4 °F / 3.0 °C 93% 30.30 in / 1026 hPa - Calm Calm - N/A   Clear
2:00 AM 39.2 °F / 4.0 °C 37.4 °F / 3.0 °C 93% 30.30 in / 1026 hPa - Calm Calm - N/A   Clear
2:30 AM 39.2 °F / 4.0 °C 37.4 °F / 3.0 °C 93% 30.30 in / 1026 hPa - Calm Calm - N/A   Clear
3:00 AM 37.4 °F / 3.0 °C 35.6 °F / 2.0 °C 93% 30.30 in / 1026 hPa - Calm Calm - N/A   Clear
3:30 AM 37.4 °F / 3.0 °C 35.6 °F / 2.0 °C 93% 30.30 in / 1026 hPa - Calm Calm - N/A   Clear
4:00 AM 36 °F / 2 °C 34 °F / 1 °C 91%  in /  hPa 6 miles / 10 kilometers Calm Calm - -   Clear
4:00 AM 35.6 °F / 2.0 °C 33.8 °F / 1.0 °C 93% 30.27 in / 1025 hPa - Calm Calm - N/A   Clear
4:30 AM 35.6 °F / 2.0 °C 33.8 °F / 1.0 °C 93% 30.27 in / 1025 hPa - Calm Calm - N/A   Clear
5:00 AM 35.6 °F / 2.0 °C 33.8 °F / 1.0 °C 93% 30.27 in / 1025 hPa - Calm Calm - N/A   Clear
5:30 AM 35.6 °F / 2.0 °C 33.8 °F / 1.0 °C 93% 30.27 in / 1025 hPa - Calm Calm - N/A   Clear
6:00 AM 33.8 °F / 1.0 °C 32.0 °F / 0.0 °C 93% 30.27 in / 1025 hPa - Calm Calm - N/A   Clear
6:30 AM 33.8 °F / 1.0 °C 32.0 °F / 0.0 °C 93% 30.27 in / 1025 hPa - Calm Calm - N/A   Clear
7:00 AM 35 °F / 2 °C 34 °F / 1 °C 92%  in /  hPa 6 miles / 10 kilometers Calm Calm - -   Clear
7:00 AM 35.6 °F / 2.0 °C 33.8 °F / 1.0 °C 93% 30.24 in / 1024 hPa - Calm Calm - N/A   Clear
7:30 AM 33.8 °F / 1.0 °C 32.0 °F / 0.0 °C 93% 30.24 in / 1024 hPa - Calm Calm - N/A   Clear
8:00 AM 35.6 °F / 2.0 °C 33.8 °F / 1.0 °C 93% 30.21 in / 1023 hPa - Calm Calm - N/A   Clear
8:30 AM 37.4 °F / 3.0 °C 30.2 °F / -1.0 °C 75% 30.21 in / 1023 hPa - Calm Calm - N/A   Clear
9:00 AM 39.2 °F / 4.0 °C 37.4 °F / 3.0 °C 93% 30.21 in / 1023 hPa - Calm Calm - N/A   Clear
9:30 AM 41.0 °F / 5.0 °C 37.4 °F / 3.0 °C 87% 30.21 in / 1023 hPa - Calm Calm - N/A   Clear
10:00 AM 46 °F / 8 °C 39 °F / 4 °C 67%  in /  hPa 9 miles / 15 kilometers Calm Calm - -   Clear
10:00 AM 46.4 °F / 8.0 °C 39.2 °F / 4.0 °C 76% 30.21 in / 1023 hPa - Calm Calm - N/A   Clear
10:30 AM 48.2 °F / 9.0 °C 39.2 °F / 4.0 °C 71% 30.21 in / 1023 hPa - Calm Calm - N/A   Clear
11:00 AM 53.6 °F / 12.0 °C 39.2 °F / 4.0 °C 58% 30.18 in / 1022 hPa - Calm Calm - N/A   Clear
11:30 AM 55.4 °F / 13.0 °C 41.0 °F / 5.0 °C 58% 30.18 in / 1022 hPa - Calm Calm - N/A   Clear
12:00 PM 55.4 °F / 13.0 °C 39.2 °F / 4.0 °C 54% 30.18 in / 1022 hPa - Calm Calm - N/A   Clear
12:30 PM 57.2 °F / 14.0 °C 39.2 °F / 4.0 °C 51% 30.15 in / 1021 hPa 6.2 miles / 10.0 kilometers Calm Calm - N/A   Partly Cloudy
1:00 PM 58 °F / 14 °C 40 °F / 4 °C 39%  in /  hPa 12 miles / 20 kilometers WNW 6.9 mph / 11.1 km/h - -   Scattered Clouds
1:00 PM 57.2 °F / 14.0 °C 39.2 °F / 4.0 °C 51% 30.15 in / 1021 hPa 6.2 miles / 10.0 kilometers WNW 6.9 mph / 11.1 km/h - N/A   Partly Cloudy
1:30 PM 59.0 °F / 15.0 °C 39.2 °F / 4.0 °C 48% 30.12 in / 1020 hPa 6.2 miles / 10.0 kilometers WNW 6.9 mph / 11.1 km/h - N/A   Partly Cloudy
2:00 PM 60.8 °F / 16.0 °C 39.2 °F / 4.0 °C 45% 30.12 in / 1020 hPa 6.2 miles / 10.0 kilometers West 9.2 mph / 14.8 km/h - N/A   Partly Cloudy
2:30 PM 60.8 °F / 16.0 °C 39.2 °F / 4.0 °C 45% 30.12 in / 1020 hPa 6.2 miles / 10.0 kilometers WNW 2.3 mph / 3.7 km/h - N/A   Partly Cloudy
3:00 PM 60.8 °F / 16.0 °C 39.2 °F / 4.0 °C 45% 30.09 in / 1019 hPa 6.2 miles / 10.0 kilometers WNW 2.3 mph / 3.7 km/h - N/A   Partly Cloudy
3:30 PM 60.8 °F / 16.0 °C 39.2 °F / 4.0 °C 45% 30.09 in / 1019 hPa 6.2 miles / 10.0 kilometers West 4.6 mph / 7.4 km/h - N/A   Partly Cloudy
4:00 PM 62 °F / 16 °C 38 °F / 3 °C 29%  in /  hPa 12 miles / 20 kilometers Calm Calm - -   Scattered Clouds
4:00 PM 60.8 °F / 16.0 °C 37.4 °F / 3.0 °C 42% 30.09 in / 1019 hPa 6.2 miles / 10.0 kilometers Calm Calm - N/A   Partly Cloudy
4:30 PM 60.8 °F / 16.0 °C 37.4 °F / 3.0 °C 42% 30.09 in / 1019 hPa 6.2 miles / 10.0 kilometers NW 4.6 mph / 7.4 km/h - N/A   Partly Cloudy
5:00 PM 59.0 °F / 15.0 °C 39.2 °F / 4.0 °C 48% 30.09 in / 1019 hPa 6.2 miles / 10.0 kilometers NW 4.6 mph / 7.4 km/h - N/A   Partly Cloudy
5:30 PM 57.2 °F / 14.0 °C 39.2 °F / 4.0 °C 51% 30.09 in / 1019 hPa 6.2 miles / 10.0 kilometers Calm Calm - N/A   Partly Cloudy
6:00 PM 53.6 °F / 12.0 °C 39.2 °F / 4.0 °C 58% 30.09 in / 1019 hPa 6.2 miles / 10.0 kilometers Calm Calm - N/A   Partly Cloudy
6:30 PM 53.6 °F / 12.0 °C 39.2 °F / 4.0 °C 58% 30.09 in / 1019 hPa 6.2 miles / 10.0 kilometers West 4.6 mph / 7.4 km/h - N/A   Partly Cloudy
7:00 PM 54 °F / 12 °C 40 °F / 4 °C 47%  in /  hPa 9 miles / 15 kilometers WSW 9.2 mph / 14.8 km/h - -   Partly Cloudy
7:00 PM 53.6 °F / 12.0 °C 39.2 °F / 4.0 °C 58% 30.09 in / 1019 hPa 6.2 miles / 10.0 kilometers WSW 9.2 mph / 14.8 km/h - N/A   Scattered Clouds
7:30 PM 53.6 °F / 12.0 °C 39.2 °F / 4.0 °C 58% 30.09 in / 1019 hPa 6.2 miles / 10.0 kilometers Calm Calm - N/A   Scattered Clouds
8:00 PM 51.8 °F / 11.0 °C 39.2 °F / 4.0 °C 62% 30.09 in / 1019 hPa 6.2 miles / 10.0 kilometers Calm Calm - N/A   Partly Cloudy
8:30 PM 51.8 °F / 11.0 °C 39.2 °F / 4.0 °C 62% 30.09 in / 1019 hPa 6.2 miles / 10.0 kilometers Calm Calm - N/A   Partly Cloudy